Weather History for Austin Bergstrom, TX

Change the Weather History Date:

Monday, July 1, 2013

  Actual Average Record
Temperature  
Mean Temperature 79 °F 82 °F  
Max Temperature 91 °F 94 °F 103 °F (1980)
Min Temperature 67 °F 71 °F 67 °F (1985)
Degree Days  
Heating Degree Days 0 0  
Month to date heating degree days 0 0  
Since 1 June heating degree days 0 0  
Since 1 July heating degree days 0 0  
Cooling Degree Days 14 18  
Month to date cooling degree days 14 18  
Year to date cooling degree days 1097 1006  
Since 1 June cooling degree days 583 499  
Growing Degree Days 30 (Base 50)    
Moisture  
Dew Point 56 °F    
Average Humidity 54    
Maximum Humidity 81    
Minimum Humidity 27    
Precipitation  
Precipitation 0.00 in 0.10 in 0.92 in (2002)
Month to date precipitation 0.00 0.10  
Year to date precipitation 16.13 16.53  
Snow  
Snow 0.00 in - - ()
Month to date snowfall 0.0  
Since 1 June snowfall 0.0  
Since 1 July snowfall 0.0  
Snow Depth 0.00 in    
Sea Level Pressure  
Sea Level Pressure 29.94 in    
Wind  
Wind Speed 9 mph (NNE)    
Max Wind Speed 23 mph    
Max Gust Speed 29 mph    
Visibility 10 miles    
Events      
T = Trace of Precipitation, MM = Missing Value Source: NWS Daily Summary

Daily Weather History Graph

Daily Weather History Graph

Search for Another Location

Airport:

Trip Planner

Search our weather history database for the weather conditions in past years. The results will help you decide how hot, cold, wet, or windy it might be!

Date:

Astronomy

Jul. 01, 2013 Rise Set
Actual Time 6:32 AM CDT 8:36 PM CDT
Civil Twilight 6:05 AM CDT 9:03 PM CDT
Nautical Twilight 5:32 AM CDT 9:37 PM CDT
Astronomical Twilight 4:56 AM CDT 10:12 PM CDT
Moon 1:47 AM CDT (7/1) 3:06 PM CDT (7/1)
Length of Visible Light 14h 58m
Length of Day
14h 03m
Waning Crescent, 35% of the Moon is Illuminated
Jul 1
Waning Crescent
Jul 8
New
Jul 15
First Quarter
Jul 22
Full
Jul 29
Last Quarter

Hourly Weather History & Observations

Time (CDT) Temp. Heat Index Dew Point Humidity Pressure Visibility Wind Dir Wind Speed Gust Speed Precip Events Conditions
12:53 AM 82.0 °F 82.0 °F 57.9 °F 44% 29.87 in 10.0 mi NNE 9.2 mph - N/A   Clear
1:53 AM 75.0 °F - 60.1 °F 60% 29.88 in 10.0 mi North 8.1 mph - N/A   Clear
2:53 AM 77.0 °F - 57.9 °F 52% 29.88 in 10.0 mi NE 8.1 mph - N/A   Clear
3:53 AM 73.9 °F - 57.9 °F 57% 29.89 in 10.0 mi East 3.5 mph - N/A   Clear
4:53 AM 75.0 °F - 57.0 °F 53% 29.91 in 10.0 mi NNE 9.2 mph - N/A   Clear
5:53 AM 69.1 °F - 59.0 °F 70% 29.93 in 10.0 mi Calm Calm - N/A   Clear
6:53 AM 68.0 °F - 59.0 °F 73% 29.95 in 10.0 mi North 6.9 mph - N/A   Scattered Clouds
7:53 AM 75.0 °F - 59.0 °F 57% 29.96 in 10.0 mi North 6.9 mph - N/A   Partly Cloudy
8:53 AM 80.1 °F 80.6 °F 57.9 °F 47% 29.97 in 10.0 mi North 10.4 mph - N/A   Partly Cloudy
9:53 AM 84.0 °F 83.3 °F 57.0 °F 40% 29.97 in 10.0 mi North 12.7 mph - N/A   Partly Cloudy
10:53 AM 86.0 °F 84.7 °F 55.9 °F 36% 29.97 in 10.0 mi North 11.5 mph 19.6 mph N/A   Clear
11:53 AM 88.0 °F 86.5 °F 55.9 °F 34% 29.96 in 10.0 mi North 13.8 mph 23.0 mph N/A   Partly Cloudy
12:53 PM 90.0 °F 87.5 °F 53.1 °F 28% 29.95 in 10.0 mi North 16.1 mph - N/A   Scattered Clouds
1:53 PM 89.1 °F 86.7 °F 53.1 °F 29% 29.95 in 10.0 mi North 15.0 mph 23.0 mph N/A   Mostly Cloudy
2:53 PM 91.0 °F 88.7 °F 54.0 °F 28% 29.93 in 10.0 mi North 19.6 mph 28.8 mph N/A   Mostly Cloudy
3:53 PM 89.1 °F - 52.0 °F 28% 29.94 in 10.0 mi North 15.0 mph 25.3 mph N/A   Mostly Cloudy
4:53 PM 89.1 °F 86.7 °F 53.1 °F 29% 29.94 in 10.0 mi NNE 17.3 mph 25.3 mph N/A   Scattered Clouds
5:53 PM 87.1 °F 85.1 °F 54.0 °F 32% 29.93 in 10.0 mi North 10.4 mph - N/A   Mostly Cloudy
6:53 PM 86.0 °F 84.2 °F 54.0 °F 33% 29.93 in 10.0 mi NE 8.1 mph - N/A   Mostly Cloudy
7:53 PM 84.0 °F 83.0 °F 55.9 °F 38% 29.93 in 10.0 mi ENE 4.6 mph - N/A   Mostly Cloudy
8:53 PM 82.9 °F 82.0 °F 55.0 °F 38% 29.94 in 10.0 mi NNE 4.6 mph - N/A   Mostly Cloudy
9:53 PM 72.0 °F - 61.0 °F 68% 29.96 in 10.0 mi Calm Calm - N/A   Partly Cloudy
10:53 PM 68.0 °F - 62.1 °F 81% 29.97 in 10.0 mi NNW 3.5 mph - N/A   Partly Cloudy
11:53 PM 68.0 °F - 62.1 °F 81% 29.98 in 10.0 mi Calm Calm - N/A   Clear